[[{"header":{"parameterUnit":"m.s-1","parameterCategory":1,"la1":30.2991,"la2":30.254,"lo1":-89.0895,"lo2":-89.0444,"dy":0.0017,"dx":0.0017,"nx":28,"ny":28,"refTime":"2024-09-02T03:00:00:Z","depth":0,"parameterNumber":2,"parameterNumberName":"U-component_of_WINDS"},"data":[0,0,0,0,0,0,0,0,0,0,0,0,0,0,0,0,0,0,0,0,0,0,0,0,0,0,0,0,0,0,0,0,0,0,0,0,0,0,0,0,0,0,0,0,0,0,0,0,0,0,0,0,0,0,0,0,0,0,-2.0737,-2.0737,0,-2.0739,-2.0739,-2.0739,-2.0696,-2.0695,-2.0694,-2.0693,-2.0696,-2.0697,-2.0699,0,0,0,0,0,0,0,0,0,0,0,0,0,-2.0697,-2.0698,-2.0737,-2.0737,-2.0737,-2.0739,-2.0739,-2.0739,-2.0697,-2.0695,-2.0694,-2.0693,-2.0696,-2.0697,-2.0699,0,0,0,0,0,0,0,0,0,0,0,0,0,-2.0708,-2.0698,-2.0737,-2.0716,-2.0714,-2.0739,-2.0739,-2.0739,-2.0697,-2.0695,-2.0693,-2.0692,-2.0695,-2.0697,-2.0699,-2.0744,0,0,-2.0704,-2.0705,0,0,0,0,0,0,0,0,-2.0708,-2.071,-2.0719,-2.0717,-2.0715,-2.0716,-2.0726,-2.0741,-2.0697,-2.0703,-2.0693,-2.0691,-2.0704,-2.0705,-2.0709,-2.0744,-2.0744,-2.0704,-2.0705,-2.0706,-2.0707,0,0,0,0,0,0,0,-2.0707,-2.0709,-2.0737,-2.0719,-2.0717,-2.0707,-2.0706,-2.0729,-2.0713,-2.0703,-2.07,-2.07,-2.0703,-2.0708,-2.0709,-2.0744,-2.0704,-2.0706,-2.0707,-2.0708,-2.0818,-2.0819,0,0,0,0,0,0,-2.0709,-2.0709,-2.0737,-2.0737,-2.0707,-2.0709,-2.0709,-2.0717,-2.0713,-2.0711,-2.0702,-2.0698,-2.0706,-2.0707,-2.0709,-2.0762,-2.0706,-2.0708,-2.0709,-2.0816,-2.0818,-2.082,0,0,0,0,0,0,-2.0708,-2.0712,-2.0737,-2.0722,-2.0725,-2.0711,-2.0721,-2.0718,-2.0723,-2.0712,-2.071,-2.071,-2.0704,-2.0707,-2.0736,-2.0762,-2.0709,-2.071,-2.0813,-2.0816,-2.0819,-2.0869,0,0,0,0,0,0,-2.0707,-2.0712,-2.0728,-2.0723,-2.0726,-2.0764,-2.0723,-2.0719,-2.0726,-2.0721,-2.0719,-2.0717,-2.0703,-2.0733,-2.0738,-2.0763,-2.0711,-2.0811,-2.0815,-2.0818,-2.0865,-2.0873,-2.088,0,0,0,0,0,-2.0706,-2.0742,-2.0729,-2.0733,-2.0746,-2.0765,-2.0767,-2.075,-2.0728,-2.0745,-2.0739,-2.0717,-2.0758,-2.0737,-2.0741,-2.0768,-2.0809,-2.0814,-2.0818,-2.0862,-2.0872,-2.088,0,0,0,0,0,0,-2.0751,-2.0741,-2.0727,-2.0762,-2.0765,-2.0758,-2.0779,-2.0761,-2.077,-2.0766,-2.0745,-2.0744,-2.0777,-2.0775,-2.0752,-2.0812,-2.078,-2.0785,-2.0812,-2.0821,-2.0829,-2.0829,-2.0713,0,0,0,0,0,-2.0765,-2.0781,-2.0772,-2.0804,-2.0806,-2.0793,-2.08,-2.0787,-2.0789,-2.079,-2.0785,-2.0788,-2.0802,-2.0811,-2.0823,-2.0865,-2.0864,-2.0885,-2.0893,-2.0899,-2.0904,-2.0927,-2.0936,-2.0834,-2.0834,-2.0834,0,0,-2.0794,-2.0791,-2.0802,-2.0813,-2.0814,-2.0831,-2.0794,-2.0813,-2.0826,-2.0793,-2.082,-2.0817,-2.0819,-2.0855,-2.0871,-2.0854,-2.0932,-2.0905,-2.091,-2.0911,-2.0932,-2.0942,-2.0951,-2.0837,-2.0836,-2.0836,0,0,-2.0857,-2.0856,-2.0883,-2.0884,-2.0886,-2.0876,-2.0883,-2.0879,-2.0876,-2.0903,-2.0878,-2.0894,-2.0917,-2.092,-2.0925,-2.099,-2.0971,-2.0994,-2.1034,-2.1057,-2.1065,-2.1072,-2.1096,-2.1105,-2.0999,-2.0999,-2.0999,0,-2.0893,-2.0918,-2.0899,-2.0921,-2.0927,-2.0898,-2.0926,-2.0928,-2.0933,-2.0938,-2.092,-2.095,-2.0949,-2.0986,-2.1002,-2.1006,-2.1014,-2.0994,-2.1065,-2.1072,-2.1078,-2.1101,-2.111,-2.1002,-2.1002,-2.1001,-2.1001,0,-2.0963,-2.0981,-2.1003,-2.1009,-2.1018,-2.1043,-2.1028,-2.1039,-2.1025,-2.1018,-2.1047,-2.1045,-2.1057,-2.1064,-2.1051,-2.1099,-2.109,-2.1069,-2.1036,-2.1091,-2.1112,-2.1121,-2.1006,-2.1005,-2.1004,-2.1004,0,0,-2.1054,-2.105,-2.1058,-2.1061,-2.1061,-2.1075,-2.1099,-2.111,-2.112,-2.1125,-2.1145,-2.1166,-2.1147,-2.1152,-2.1139,-2.1159,-2.1212,-2.1135,-2.1135,-2.115,-2.1266,-2.1282,-2.1293,-2.1199,-2.12,-2.1202,-2.1266,0,-2.1116,-2.1156,-2.114,-2.1182,-2.1199,-2.1172,-2.1193,-2.1195,-2.1189,-2.1203,-2.1197,-2.1213,-2.1186,-2.1189,-2.1207,-2.1201,-2.1235,-2.1196,-2.1218,-2.1219,-2.1219,-2.1303,-2.1321,-2.1382,-2.1274,-2.1275,-2.1276,0,-2.1193,-2.1201,-2.1245,-2.1242,-2.1249,-2.1268,-2.1278,-2.1291,-2.1293,-2.1288,-2.1294,-2.1277,-2.1301,-2.1269,-2.1303,-2.1277,-2.1285,-2.1284,-2.1286,-2.1287,-2.1252,-2.1309,-2.14,-2.141,-2.1289,-2.1288,-2.1287,0,-2.1256,-2.1278,-2.1307,-2.131,-2.1308,-2.1322,-2.1322,-2.1323,-2.1331,-2.1339,-2.1345,-2.1356,-2.1362,-2.1372,-2.1359,-2.1336,-2.1395,-2.1361,-2.1391,-2.1392,-2.1405,-2.1405,-2.1501,-2.1409,-2.1409,-2.1409,-2.1409,0,-2.1326,-2.1354,-2.1335,-2.1353,-2.1384,-2.1366,-2.1398,-2.1394,-2.1396,-2.1413,-2.139,-2.1407,-2.1388,-2.1404,-2.1393,-2.1423,-2.1426,-2.1423,-2.142,-2.1426,-2.1426,-2.1431,-2.1427,-2.1411,-2.1411,-2.141,-2.141,0,-2.1402,-2.139,-2.142,-2.1416,-2.1416,-2.1439,-2.1435,-2.1452,-2.1445,-2.1468,-2.1472,-2.1461,-2.1478,-2.1466,-2.1483,-2.1476,-2.1516,-2.1506,-2.1515,-2.1513,-2.1545,-2.1542,-2.1648,-2.1661,-2.156,-2.1561,-2.1562,0,-2.1448,-2.1469,-2.1467,-2.1477,-2.1479,-2.1495,-2.1503,-2.1486,-2.1496,-2.1501,-2.1518,-2.1533,-2.1545,-2.1573,-2.1567,-2.1581,-2.1572,-2.1608,-2.1574,-2.1579,-2.1574,-2.1573,-2.1575,-2.1615,-2.1616,-2.1617,-2.1618,0,-2.1532,-2.1525,-2.1538,-2.1549,-2.156,-2.1568,-2.1574,-2.1584,-2.1567,-2.1579,-2.1596,-2.1605,-2.1623,-2.1639,-2.165,-2.165,-2.1632,-2.1629,-2.1637,-2.1643,-2.1647,-2.1646,-2.1535,-2.1627,-2.1626,-2.1625,-2.1625,-2.1624,-2.1594,-2.1612,-2.1614,-2.1629,-2.1632,-2.1639,-2.1655,-2.165,-2.1664,-2.1677,-2.1667,-2.1688,-2.1691,-2.1704,-2.1706,-2.1723,-2.1708,-2.172,-2.1723,-2.1726,-2.1731,-2.1644,-2.1725,-2.1725,-2.1724,-2.1724,-2.1724,0,-2.1677,-2.1677,-2.1692,-2.1701,-2.1714,-2.1695,-2.1702,-2.1713,-2.1732,-2.1736,-2.1748,-2.1769,-2.1784,-2.178,-2.1794,-2.1808,-2.18,-2.1812,-2.1811,-2.1812,-2.1743,-2.1735,-2.1818,-2.1818,-2.1818,-2.1818,-2.1818,-2.1818,-2.1722,-2.1752,-2.1746,-2.1777,-2.1777,-2.1797,-2.1803,-2.1809,-2.1812,-2.1836,-2.1849,-2.1846,-2.1847,-2.1861,-2.1875,-2.1873,-2.1879,-2.1895,-2.1891,-2.1826,-2.1817,-2.1808,-2.18,-2.1896,-2.1896,-2.1958,-2.1959,-2.1959]},{"header":{"parameterUnit":"m.s-1","parameterCategory":1,"la1":30.2991,"la2":30.254,"lo1":-89.0895,"lo2":-89.0444,"dy":0.0017,"dx":0.0017,"nx":28,"ny":28,"refTime":"2024-09-02T03:00:00:Z","depth":0,"parameterNumber":3,"parameterNumberName":"V-component_of_WINDS"},"data":[0,0,0,0,0,0,0,0,0,0,0,0,0,0,0,0,0,0,0,0,0,0,0,0,0,0,0,0,0,0,0,0,0,0,0,0,0,0,0,0,0,0,0,0,0,0,0,0,0,0,0,0,0,0,0,0,0,0,-2.4175,-2.4175,0,-2.4192,-2.4192,-2.4192,-2.4165,-2.4165,-2.4164,-2.4163,-2.4178,-2.4179,-2.4181,0,0,0,0,0,0,0,0,0,0,0,0,0,-2.4116,-2.4117,-2.4175,-2.4175,-2.4175,-2.4192,-2.4192,-2.4192,-2.4166,-2.4165,-2.4163,-2.4162,-2.4178,-2.4179,-2.4181,0,0,0,0,0,0,0,0,0,0,0,0,0,-2.4138,-2.4117,-2.4174,-2.4164,-2.4163,-2.4192,-2.4192,-2.4192,-2.4166,-2.4164,-2.4163,-2.4162,-2.4177,-2.4179,-2.4181,-2.422,0,0,-2.4187,-2.4188,0,0,0,0,0,0,0,0,-2.4137,-2.414,-2.4165,-2.4165,-2.4164,-2.4175,-2.4177,-2.4202,-2.4166,-2.4165,-2.4163,-2.4161,-2.4178,-2.418,-2.4186,-2.4221,-2.4222,-2.4187,-2.4188,-2.4189,-2.4189,0,0,0,0,0,0,0,-2.4135,-2.4139,-2.4181,-2.4165,-2.4165,-2.4157,-2.4159,-2.4182,-2.4179,-2.4165,-2.4163,-2.4165,-2.4177,-2.4184,-2.4186,-2.4222,-2.4187,-2.4189,-2.419,-2.4191,-2.4291,-2.4293,0,0,0,0,0,0,-2.4135,-2.4138,-2.4181,-2.4182,-2.4147,-2.4159,-2.4161,-2.4173,-2.4179,-2.4178,-2.4167,-2.4164,-2.4182,-2.4184,-2.4187,-2.4234,-2.4189,-2.4191,-2.4192,-2.429,-2.4291,-2.4293,0,0,0,0,0,0,-2.4134,-2.4139,-2.418,-2.416,-2.4164,-2.4162,-2.4175,-2.4174,-2.4181,-2.418,-2.4179,-2.4174,-2.4181,-2.4184,-2.4213,-2.4234,-2.4192,-2.4193,-2.4288,-2.429,-2.4292,-2.4329,0,0,0,0,0,0,-2.4133,-2.4139,-2.4155,-2.416,-2.4165,-2.4207,-2.4176,-2.4175,-2.4184,-2.4181,-2.4187,-2.4187,-2.418,-2.421,-2.4215,-2.4236,-2.4195,-2.4286,-2.4289,-2.4292,-2.4326,-2.4333,-2.4338,0,0,0,0,0,-2.4131,-2.4164,-2.4156,-2.4161,-2.4185,-2.4208,-2.4211,-2.4203,-2.4186,-2.4202,-2.4201,-2.4186,-2.4231,-2.4213,-2.4218,-2.4241,-2.4284,-2.4288,-2.4291,-2.4323,-2.4331,-2.4338,0,0,0,0,0,0,-2.416,-2.4164,-2.4155,-2.4191,-2.42,-2.4203,-2.4222,-2.4211,-2.4224,-2.4221,-2.421,-2.4211,-2.4242,-2.4244,-2.4224,-2.4279,-2.4255,-2.4259,-2.4278,-2.4285,-2.4291,-2.429,-2.4196,0,0,0,0,0,-2.4171,-2.419,-2.4192,-2.4223,-2.4228,-2.4225,-2.4234,-2.4228,-2.4236,-2.4239,-2.424,-2.4248,-2.4263,-2.4274,-2.4288,-2.4326,-2.4327,-2.4344,-2.435,-2.4355,-2.4359,-2.438,-2.4388,-2.4304,-2.4304,-2.4304,0,0,-2.4193,-2.4198,-2.421,-2.423,-2.4235,-2.4255,-2.4228,-2.4249,-2.4264,-2.4242,-2.427,-2.4271,-2.4278,-2.4312,-2.4327,-2.4314,-2.4382,-2.4359,-2.4363,-2.4365,-2.4384,-2.4392,-2.4399,-2.4307,-2.4306,-2.4306,0,0,-2.4244,-2.4249,-2.4276,-2.4283,-2.4292,-2.429,-2.4296,-2.4302,-2.4302,-2.433,-2.4314,-2.433,-2.4357,-2.4364,-2.4371,-2.4424,-2.4411,-2.4429,-2.4461,-2.4481,-2.4488,-2.4493,-2.4514,-2.4521,-2.4433,-2.4433,-2.4433,0,-2.427,-2.43,-2.4291,-2.4315,-2.4324,-2.4306,-2.4333,-2.4339,-2.4352,-2.4359,-2.4345,-2.4379,-2.4383,-2.4418,-2.4431,-2.4437,-2.4444,-2.4429,-2.4487,-2.4493,-2.4498,-2.4517,-2.4525,-2.4435,-2.4435,-2.4435,-2.4435,0,-2.4332,-2.4353,-2.4374,-2.4389,-2.44,-2.4425,-2.442,-2.4432,-2.4424,-2.4423,-2.4452,-2.4455,-2.4471,-2.4478,-2.447,-2.4513,-2.4505,-2.4489,-2.4465,-2.4509,-2.4527,-2.4534,-2.4439,-2.4438,-2.4437,-2.4437,0,0,-2.4403,-2.4413,-2.4421,-2.4428,-2.4436,-2.4452,-2.4476,-2.4492,-2.4503,-2.4512,-2.4533,-2.4556,-2.4542,-2.455,-2.4542,-2.456,-2.4604,-2.4542,-2.4542,-2.4555,-2.4651,-2.4664,-2.4673,-2.4595,-2.4596,-2.4597,-2.4651,0,-2.4455,-2.4498,-2.4491,-2.4533,-2.4552,-2.4535,-2.4556,-2.4563,-2.4563,-2.4578,-2.4577,-2.4595,-2.4574,-2.4579,-2.4595,-2.4595,-2.4623,-2.4591,-2.4614,-2.4615,-2.4614,-2.4682,-2.4695,-2.4746,-2.4658,-2.4659,-2.466,0,-2.4521,-2.4535,-2.4579,-2.4585,-2.4593,-2.4612,-2.4627,-2.4642,-2.465,-2.4648,-2.4657,-2.4647,-2.467,-2.4644,-2.4677,-2.4655,-2.4664,-2.4665,-2.4667,-2.4669,-2.4641,-2.4688,-2.4762,-2.4771,-2.4671,-2.467,-2.4669,0,-2.457,-2.4598,-2.4629,-2.4635,-2.4643,-2.4657,-2.4661,-2.4668,-2.4678,-2.469,-2.4696,-2.4711,-2.4719,-2.473,-2.4723,-2.4705,-2.4757,-2.473,-2.4757,-2.4757,-2.477,-2.4769,-2.4848,-2.4773,-2.4773,-2.4773,-2.4773,0,-2.4629,-2.4657,-2.4651,-2.467,-2.4701,-2.4692,-2.4722,-2.4724,-2.473,-2.4748,-2.4733,-2.475,-2.474,-2.4757,-2.4751,-2.478,-2.4783,-2.4782,-2.4781,-2.4785,-2.4785,-2.4791,-2.4788,-2.4775,-2.4774,-2.4774,-2.4774,0,-2.4689,-2.4686,-2.4719,-2.4724,-2.4726,-2.4748,-2.4753,-2.477,-2.4768,-2.4792,-2.4797,-2.4794,-2.4812,-2.4807,-2.4826,-2.4822,-2.4859,-2.4852,-2.4857,-2.4856,-2.4883,-2.4881,-2.4969,-2.4981,-2.4897,-2.4898,-2.4899,0,-2.4728,-2.475,-2.4758,-2.477,-2.4775,-2.4794,-2.4805,-2.4796,-2.4808,-2.4819,-2.4835,-2.4853,-2.4866,-2.4897,-2.4896,-2.4911,-2.4905,-2.4935,-2.4907,-2.4911,-2.4907,-2.4907,-2.4909,-2.4941,-2.4942,-2.4943,-2.4943,0,-2.4798,-2.4796,-2.4812,-2.4829,-2.4842,-2.4854,-2.4865,-2.4875,-2.4868,-2.4881,-2.4901,-2.4912,-2.4932,-2.495,-2.4964,-2.4967,-2.4954,-2.4952,-2.4959,-2.4964,-2.4966,-2.4967,-2.4874,-2.495,-2.495,-2.4949,-2.4949,-2.4949,-2.485,-2.4868,-2.4877,-2.4896,-2.4904,-2.4914,-2.4931,-2.4932,-2.4948,-2.4965,-2.4959,-2.4982,-2.4989,-2.5006,-2.5011,-2.5028,-2.5017,-2.5027,-2.5029,-2.5032,-2.5037,-2.4963,-2.503,-2.503,-2.503,-2.503,-2.503,0,-2.492,-2.4925,-2.4942,-2.4959,-2.4974,-2.4961,-2.4972,-2.4985,-2.5006,-2.5014,-2.5028,-2.5051,-2.5068,-2.5069,-2.5084,-2.5098,-2.5093,-2.5103,-2.5102,-2.5103,-2.5045,-2.5038,-2.5107,-2.5107,-2.5107,-2.5107,-2.5107,-2.5107,-2.4958,-2.4989,-2.4988,-2.5023,-2.5027,-2.505,-2.5058,-2.5067,-2.5074,-2.51,-2.5115,-2.5115,-2.5121,-2.5137,-2.5152,-2.5152,-2.5159,-2.5171,-2.5169,-2.5115,-2.5107,-2.51,-2.5093,-2.5172,-2.5173,-2.5226,-2.5226,-2.5226]}]]